Flag for U.S.A. Weather past 2 weeks in Newark, New Jersey, U.S.A.

Now
38 °F

Overcast.


Feels Like: 31 °F
Forecast: 35 / 44 °F
Wind: 9 mph from Northwest

Location: Newark International Airport

Current Time: Dec 18, 2014 at 7:41:06 AM

Latest Report: Dec 18, 2014 at 6:51 AM


Visibility: 10 mi

Pressure: 29.97 "Hg

Humidity: 53%

Dew point: 22 °F

Location of NewarkLocation

Historic Weather in Newark — Graph

°F

Newark temperature yesterday

Maximum temperature yesterday: 53 °F (at 10:51 AM)
Minimum temperature yesterday: 40 °F (at 11:51 PM)
Average temperature yesterday: 47 °F

Past Weeks' High & Low Weather Summary

 TemperatureHumidityPressure
High53 °F (Dec 17, 10:51 AM)100% (Dec 6, 12:51 AM)30.69 "Hg (Dec 6, 12:51 AM)
Low24 °F (Dec 8, 3:51 AM)30% (Dec 7, 4:51 PM)29.60 "Hg (Dec 10, 2:51 PM)
Average39 °F71%30.08 "Hg
* Reported Dec 3 6:51 AM — Dec 18 6:51 AM, Newark, Weather by CustomWeather, © 2014

Note: Actual official high and low records may vary slightly from our data, if they occured in-between our weather recording intervals... More about our weather records

Advertising

Newark weather history for previous 24 hours

 ConditionsComfort  
Time TempWeatherWind HumidityBarometerVisibility
6:51 AM
Dec 18
38 °FOvercast.9 mph53%29.97 "Hg10 mi
5:51 AM37 °FPassing clouds.10 mph57%29.96 "Hg10 mi
4:51 AM38 °FPassing clouds.14 mph58%29.93 "Hg10 mi
3:51 AM39 °FOvercast.13 mph60%29.92 "Hg10 mi
2:51 AM39 °FOvercast.12 mph57%29.92 "Hg10 mi
1:51 AM39 °FMostly cloudy.16 mph57%29.90 "Hg10 mi
12:51 AM39 °FPassing clouds.13 mph60%29.89 "Hg10 mi
11:51 PM
Dec 17
40 °FPassing clouds.15 mph58%29.89 "Hg10 mi
10:51 PM42 °FPartly cloudy.16 mph55%29.90 "Hg10 mi
9:51 PM43 °FPartly cloudy.15 mph56%29.90 "Hg10 mi
8:51 PM44 °FPassing clouds.13 mph55%29.90 "Hg10 mi
7:51 PM45 °FPassing clouds.14 mph56%29.89 "Hg10 mi
6:51 PM48 °FMostly cloudy.22 mph54%29.88 "Hg10 mi
5:51 PM48 °FLight rain. Mostly cloudy.13 mph59%29.87 "Hg10 mi
4:51 PM50 °FOvercast.14 mph57%29.85 "Hg10 mi
3:51 PM51 °FOvercast.16 mph56%29.83 "Hg10 mi
2:51 PM51 °FOvercast.12 mph59%29.82 "Hg10 mi
1:51 PM52 °FPartly sunny.14 mph57%29.81 "Hg10 mi
12:51 PM53 °FPartly sunny.17 mph59%29.81 "Hg10 mi
11:51 AM53 °FLight rain. Partly sunny.17 mph61%29.82 "Hg10 mi
10:51 AM53 °FScattered clouds.9 mph69%29.85 "Hg10 mi
9:51 AM48 °FScattered clouds.9 mph80%29.87 "Hg10 mi
8:51 AM46 °FScattered clouds.7 mph86%29.85 "Hg10 mi
7:51 AM46 °FLight rain. Broken clouds.6 mph89%29.84 "Hg10 mi
Weather by CustomWeather, © 2014

See weather overviewHow to use our weather pages